Location: ???????
(55.4362°N, 38.1183°E)
Time: 22:36:01
(UTC+00:00)

deb Delta 139 - Visible Passes

Search period start: 28 January 2022 00:00
Search period end: 07 February 2022 00:00
Orbit: 791 x 1092 km, 98.7° (Epoch: 28 January)

Date Brightness Start Highest point End Pass type
(mag) Time Alt. Az. Time Alt. Az. Time Alt. Az.
28 Jan ? 01:53:21 10° NE 01:56:44 15° E 02:00:11 10° ESE visible
28 Jan ? 03:34:18 10° NNE 03:40:29 61° ESE 03:47:00 10° S visible
28 Jan ? 15:22:48 10° SSW 15:27:46 37° W 15:33:06 10° NNW visible
29 Jan ? 02:07:36 10° NE 02:11:53 19° E 02:16:17 10° SE visible
29 Jan ? 03:49:09 10° NNE 03:55:25 74° ESE 04:02:02 10° S visible
29 Jan ? 15:38:05 10° SSW 15:42:48 30° W 15:47:49 10° NNW visible
30 Jan ? 02:22:04 10° NE 02:27:00 23° E 02:32:06 10° SE visible
30 Jan ? 04:04:01 10° NNE 04:10:19 89° ESE 04:16:59 10° SSW visible
30 Jan ? 15:53:30 10° SW 15:57:52 24° W 16:02:29 10° NW visible
31 Jan ? 02:36:40 10° NNE 02:42:05 29° E 02:47:42 10° SSE visible
31 Jan ? 04:18:53 10° NNE 04:25:12 77° WNW 04:31:50 10° SSW visible
31 Jan ? 16:09:05 10° SW 16:12:58 19° W 16:17:02 10° NW visible
01 Feb ? 02:51:21 10° NNE 02:57:08 35° E 03:03:09 10° SSE visible
01 Feb ? 04:33:48 10° NNE 04:40:02 64° WNW 04:46:36 10° SW visible
01 Feb ? 14:38:49 10° S 14:44:17 72° WSW 14:50:14 10° NNW visible
01 Feb ? 16:24:54 10° WSW 16:28:06 15° W 16:31:26 10° NW visible
02 Feb ? 03:06:05 10° NNE 03:12:09 43° E 03:18:27 10° SSE visible
02 Feb ? 14:53:48 10° S 14:59:13 58° W 15:05:05 10° NNW visible
02 Feb ? 16:41:10 10° W 16:43:17 12° WNW 16:45:27 10° NW visible
03 Feb ? 01:40:29 10° NE 01:43:10 13° ENE 01:45:51 10° ESE visible
03 Feb ? 03:20:52 10° NNE 03:27:08 53° E 03:33:40 10° S visible
03 Feb ? 15:08:52 10° S 15:14:10 46° W 15:19:55 10° NNW visible
04 Feb ? 01:54:29 10° NE 01:58:21 16° E 02:02:17 10° ESE visible
04 Feb ? 03:35:41 10° NNE 03:42:06 64° ESE 03:48:46 10° S visible
04 Feb ? 15:24:02 10° SSW 15:29:09 37° W 15:34:43 10° NNW visible
05 Feb ? 02:08:50 10° NE 02:13:30 20° E 02:18:15 10° SE visible
05 Feb ? 03:50:31 10° NNE 03:57:01 78° ESE 04:03:46 10° SSW visible
05 Feb ? 15:39:18 10° SSW 15:44:12 30° W 15:49:26 10° NNW visible
06 Feb ? 02:23:22 10° NE 02:28:38 25° E 02:33:59 10° SE visible
06 Feb ? 04:05:24 10° NNE 04:11:55 88° WNW 04:18:40 10° SSW visible
06 Feb ? 15:54:44 10° SW 15:59:16 24° W 16:04:06 10° NW visible
